Total_Precipitation_Accumulation
0.04 0.04 0.04 0.04 0.03 0.03 0.02 0.02 0.02 0.02 0.03 0.03 0.04 0.04 0.06 0.05 0.04 0.01 0.00 0.00 0.00 0.00 0.00 0.00 0.00 0.00 0.02 0.05 0.14 0.49 0.24 0.13 0.11 0.31 0.21 0.38 0.64 0.23 0.07 0.31 0.30 0.31 0.25 0.08 0.04 0.03 0.10 0.18 0.19 0.12 0.10 0.08 0.02 0.01
0.03 0.03 0.04 0.04 0.02 0.02 0.02 0.02 0.02 0.02 0.02 0.02 0.02 0.03 0.05 0.05 0.05 0.02 0.00 0.00 0.00 0.00 0.00 0.00 0.00 0.00 0.00 0.00 0.01 0.04 0.11 0.19 0.12 0.47 0.40 0.33 0.34 0.40 0.08 0.07 0.17 0.13 0.23 0.32 0.15 0.08 0.07 0.06 0.27 0.42 0.21 0.12 0.10 0.04
0.03 0.03 0.03 0.02 0.02 0.02 0.02 0.02 0.02 0.02 0.02 0.02 0.02 0.03 0.05 0.05 0.06 0.04 0.00 0.00 0.00 0.00 0.00 0.00 0.00 0.00 0.00 0.00 0.00 0.01 0.04 0.17 0.17 0.11 0.09 0.19 0.35 0.51 0.30 0.05 0.41 0.34 0.10 0.10 0.16 0.09 0.11 0.02 0.00 0.00 0.00 0.00 0.00 0.00
0.02 0.02 0.02 0.02 0.01 0.01 0.02 0.02 0.02 0.02 0.02 0.01 0.01 0.02 0.04 0.05 0.05 0.04 0.00 0.00 0.00 0.00 0.00 0.00 0.00 0.00 0.00 0.00 0.00 0.00 0.01 0.04 0.05 0.03 0.01 0.02 0.04 0.09 0.07 0.21 0.43 0.24 0.14 0.02 0.05 0.05 0.12 0.04 0.00 0.00 0.00 0.00 0.00 0.01
0.02 0.02 0.01 0.01 0.01 0.01 0.01 0.01 0.02 0.02 0.01 0.00 0.00 0.01 0.03 0.05 0.04 0.02 0.00 0.00 0.00 0.00 0.00 0.00 0.00 0.00 0.00 0.00 0.00 0.00 0.00 0.00 0.01 0.02 0.01 0.01 0.01 0.07 0.08 0.11 0.19 0.09 0.05 0.06 0.14 0.06 0.10 0.07 0.03 0.01 0.01 0.00 0.02 0.01
0.01 0.01 0.00 0.00 0.00 0.00 0.00 0.01 0.01 0.01 0.00 0.00 0.00 0.01 0.02 0.03 0.03 0.00 0.00 0.00 0.00 0.00 0.00 0.00 0.00 0.00 0.00 0.00 0.00 0.00 0.00 0.00 0.00 0.00 0.01 0.02 0.02 0.05 0.06 0.14 0.18 0.13 0.08 0.08 0.10 0.12 0.09 0.09 0.04 0.02 0.02 0.01 0.00 0.00
0.01 0.00 0.00 0.00 0.00 0.00 0.01 0.01 0.01 0.00 0.00 0.00 0.00 0.01 0.01 0.01 0.01 0.00 0.00 0.00 0.00 0.00 0.00 0.00 0.00 0.00 0.00 0.00 0.00 0.00 0.00 0.00 0.00 0.00 0.00 0.00 0.00 0.01 0.00 0.10 0.06 0.08 0.04 0.05 0.04 0.07 0.15 0.16 0.09 0.05 0.04 0.03 0.02 0.01
0.00 0.00 0.00 0.00 0.00 0.01 0.01 0.01 0.00 0.00 0.00 0.00 0.00 0.00 0.00 0.01 0.00 0.00 0.00 0.00 0.00 0.00 0.00 0.00 0.00 0.00 0.00 0.00 0.00 0.00 0.00 0.00 0.00 0.00 0.00 0.00 0.00 0.01 0.05 0.03 0.02 0.03 0.01 0.01 0.02 0.05 0.05 0.04 0.05 0.04 0.02 0.00 0.00 0.01
0.00 0.00 0.00 0.00 0.00 0.01 0.01 0.01 0.00 0.00 0.00 0.00 0.00 0.00 0.00 0.00 0.00 0.00 0.00 0.00 0.00 0.00 0.00 0.00 0.00 0.00 0.00 0.00 0.00 0.00 0.00 0.00 0.00 0.00 0.00 0.00 0.00 0.07 0.06 0.05 0.05 0.06 0.04 0.02 0.01 0.00 0.00 0.00 0.00 0.00 0.00 0.00 0.01 0.02
0.00 0.00 0.00 0.00 0.01 0.01 0.00 0.00 0.00 0.00 0.00 0.00 0.00 0.00 0.00 0.00 0.00 0.00 0.00 0.00 0.00 0.00 0.00 0.00 0.00 0.00 0.00 0.00 0.00 0.00 0.00 0.00 0.00 0.00 0.00 0.00 0.03 0.02 0.06 0.11 0.09 0.05 0.02 0.01 0.02 0.01 0.00 0.00 0.00 0.00 0.00 0.00 0.00 0.02
0.00 0.00 0.00 0.00 0.01 0.01 0.00 0.00 0.00 0.00 0.00 0.00 0.00 0.00 0.00 0.00 0.00 0.00 0.00 0.01 0.01 0.01 0.00 0.00 0.00 0.00 0.00 0.00 0.00 0.00 0.00 0.00 0.00 0.00 0.00 0.00 0.04 0.01 0.01 0.02 0.02 0.02 0.01 0.01 0.02 0.02 0.01 0.01 0.02 0.02 0.03 0.04 0.07 0.06
0.00 0.00 0.00 0.01 0.01 0.00 0.00 0.00 0.01 0.00 0.00 0.01 0.01 0.00 0.00 0.00 0.01 0.02 0.02 0.01 0.03 0.06 0.03 0.01 0.01 0.00 0.00 0.00 0.00 0.00 0.00 0.00 0.00 0.00 0.00 0.05 0.05 0.02 0.01 0.00 0.00 0.01 0.01 0.01 0.01 0.01 0.00 0.01 0.04 0.08 0.14 0.19 0.13 0.11
0.00 0.00 0.01 0.01 0.00 0.00 0.00 0.01 0.01 0.02 0.01 0.00 0.01 0.01 0.01 0.01 0.02 0.01 0.03 0.08 0.12 0.12 0.04 0.00 0.01 0.00 0.00 0.00 0.00 0.00 0.00 0.00 0.00 0.00 0.01 0.09 0.03 0.01 0.01 0.01 0.01 0.00 0.01 0.00 0.00 0.00 0.01 0.03 0.02 0.04 0.09 0.12 0.19 0.23
0.00 0.00 0.00 0.00 0.00 0.00 0.01 0.02 0.02 0.02 0.00 0.00 0.00 0.01 0.02 0.05 0.07 0.08 0.09 0.11 0.17 0.10 0.04 0.03 0.03 0.02 0.00 0.01 0.00 0.01 0.00 0.00 0.00 0.01 0.16 0.23 0.15 0.07 0.03 0.01 0.00 0.00 0.00 0.00 0.00 0.00 0.01 0.06 0.10 0.08 0.17 0.21 0.27 0.19
0.00 0.00 0.00 0.00 0.00 0.01 0.01 0.02 0.02 0.01 0.00 0.00 0.00 0.01 0.01 0.01 0.09 0.12 0.12 0.21 0.10 0.06 0.11 0.24 0.25 0.15 0.09 0.03 0.01 0.02 0.02 0.02 0.10 0.22 0.27 0.35 0.27 0.28 0.17 0.07 0.02 0.01 0.02 0.02 0.01 0.00 0.00 0.00 0.04 0.11 0.12 0.22 0.40 0.47
0.00 0.00 0.00 0.00 0.00 0.00 0.01 0.01 0.00 0.00 0.00 0.00 0.00 0.00 0.00 0.02 0.04 0.06 0.09 0.17 0.13 0.12 0.20 0.20 0.45 0.59 0.44 0.15 0.05 0.07 0.07 0.19 0.25 0.16 0.31 0.36 0.26 0.22 0.21 0.19 0.14 0.17 0.18 0.17 0.15 0.08 0.02 0.00 0.01 0.03 0.10 0.12 0.14 0.26
0.00 0.00 0.00 0.00 0.00 0.01 0.00 0.00 0.00 0.00 0.00 0.00 0.02 0.02 0.03 0.10 0.16 0.17 0.28 0.42 0.50 0.44 0.53 0.56 0.51 0.49 0.63 0.53 0.26 0.14 0.25 0.18 0.07 0.01 0.10 0.15 0.16 0.16 0.10 0.14 0.18 0.25 0.14 0.17 0.15 0.12 0.11 0.08 0.03 0.03 0.03 0.06 0.05 0.10
0.00 0.00 0.00 0.00 0.00 0.00 0.00 0.00 0.00 0.02 0.02 0.01 0.07 0.11 0.10 0.16 0.21 0.26 0.32 0.43 0.36 0.60 0.70 0.59 0.62 0.52 0.40 0.31 0.37 0.19 0.08 0.10 0.11 0.14 0.14 0.18 0.21 0.19 0.13 0.14 0.08 0.05 0.03 0.03 0.06 0.09 0.13 0.19 0.15 0.12 0.18 0.17 0.09 0.13
0.00 0.00 0.00 0.00 0.01 0.01 0.00 0.01 0.03 0.05 0.01 0.06 0.21 0.27 0.35 0.27 0.16 0.53 0.44 0.28 0.38 0.28 0.43 0.49 0.47 0.45 0.51 0.30 0.28 0.19 0.32 0.32 0.35 0.21 0.16 0.16 0.13 0.12 0.08 0.02 0.01 0.01 0.02 0.02 0.01 0.05 0.08 0.07 0.08 0.09 0.16 0.19 0.18 0.19
0.00 0.00 0.00 0.00 0.00 0.00 0.01 0.01 0.05 0.20 0.16 0.10 0.04 0.09 0.37 0.36 0.30 0.29 0.44 0.25 0.39 0.52 0.45 0.17 0.61 0.49 0.45 0.29 0.19 0.17 0.20 0.18 0.16 0.21 0.25 0.20 0.11 0.10 0.05 0.01 0.01 0.02 0.02 0.01 0.02 0.02 0.09 0.07 0.11 0.13 0.09 0.03 0.02 0.02
0.01 0.00 0.00 0.00 0.01 0.01 0.01 0.01 0.05 0.14 0.04 0.03 0.02 0.06 0.12 0.27 0.36 0.64 0.63 0.52 1.03 1.32 1.00 0.74 0.92 0.86 0.53 0.58 0.33 0.16 0.16 0.12 0.16 0.19 0.17 0.08 0.01 0.00 0.00 0.00 0.00 0.00 0.00 0.06 0.17 0.19 0.14 0.18 0.08 0.08 0.02 0.00 0.00 0.00
0.01 0.00 0.00 0.01 0.04 0.06 0.04 0.01 0.01 0.01 0.00 0.03 0.03 0.07 0.16 0.18 0.18 0.50 0.73 1.17 1.29 1.15 1.05 0.89 0.84 0.61 0.46 0.39 0.11 0.03 0.05 0.03 0.00 0.00 0.00 0.00 0.01 0.02 0.01 0.02 0.01 0.02 0.06 0.20 0.27 0.22 0.29 0.09 0.07 0.09 0.03 0.01 0.01 0.00
0.01 0.01 0.02 0.03 0.02 0.01 0.00 0.01 0.07 0.07 0.12 0.14 0.08 0.13 0.14 0.18 0.16 0.11 0.31 0.30 0.33 0.20 0.27 0.36 0.23 0.13 0.15 0.13 0.06 0.02 0.00 0.00 0.02 0.04 0.02 0.03 0.06 0.05 0.03 0.09 0.08 0.26 0.32 0.41 0.47 0.25 0.14 0.03 0.02 0.06 0.06 0.04 0.00 0.00
0.01 0.01 0.02 0.01 0.00 0.00 0.06 0.12 0.14 0.16 0.16 0.16 0.16 0.37 0.17 0.09 0.12 0.12 0.30 0.34 0.24 0.26 0.31 0.17 0.17 0.11 0.06 0.07 0.12 0.05 0.02 0.02 0.14 0.15 0.06 0.06 0.06 0.05 0.01 0.03 0.06 0.15 0.26 0.48 0.35 0.07 0.10 0.05 0.03 0.02 0.04 0.04 0.01 0.00
0.01 0.00 0.00 0.01 0.00 0.04 0.10 0.06 0.05 0.05 0.09 0.01 0.03 0.20 0.09 0.02 0.04 0.10 0.34 0.38 0.39 0.59 0.35 0.23 0.15 0.12 0.18 0.24 0.23 0.19 0.19 0.25 0.22 0.13 0.03 0.01 0.02 0.03 0.00 0.00 0.00 0.01 0.05 0.12 0.22 0.19 0.03 0.05 0.03 0.01 0.01 0.01 0.00 0.00
0.00 0.00 0.00 0.01 0.03 0.08 0.07 0.05 0.03 0.01 0.00 0.00 0.00 0.01 0.04 0.02 0.07 0.32 0.46 0.42 0.37 0.30 0.31 0.17 0.07 0.31 0.37 0.27 0.25 0.27 0.30 0.16 0.04 0.02 0.01 0.00 0.00 0.00 0.00 0.00 0.00 0.00 0.00 0.00 0.01 0.02 0.01 0.03 0.03 0.00 0.00 0.01 0.01 0.01
0.01 0.03 0.02 0.00 0.01 0.01 0.02 0.02 0.01 0.01 0.01 0.01 0.02 0.01 0.04 0.19 0.33 0.41 0.38 0.28 0.13 0.12 0.16 0.08 0.06 0.24 0.23 0.12 0.06 0.03 0.02 0.00 0.00 0.00 0.00 0.00 0.00 0.00 0.00 0.00 0.00 0.00 0.00 0.00 0.00 0.00 0.00 0.00 0.00 0.00 0.00 0.00 0.01 0.00
0.02 0.01 0.02 0.03 0.01 0.00 0.05 0.12 0.10 0.04 0.03 0.01 0.06 0.12 0.08 0.11 0.26 0.22 0.13 0.09 0.02 0.00 0.01 0.01 0.02 0.04 0.11 0.09 0.04 0.02 0.01 0.00 0.00 0.00 0.00 0.00 0.00 0.00 0.00 0.00 0.00 0.00 0.00 0.00 0.00 0.00 0.00 0.00 0.00 0.00 0.00 0.00 0.00 0.00
0.00 0.00 0.00 0.01 0.01 0.02 0.05 0.17 0.16 0.08 0.06 0.07 0.16 0.26 0.24 0.09 0.06 0.01 0.02 0.05 0.01 0.02 0.10 0.17 0.14 0.06 0.14 0.06 0.07 0.08 0.01 0.00 0.00 0.00 0.00 0.00 0.00 0.00 0.00 0.00 0.00 0.00 0.00 0.00 0.00 0.00 0.00 0.00 0.00 0.00 0.00 0.00 0.00 0.00
0.03 0.00 0.00 0.01 0.06 0.09 0.08 0.05 0.03 0.01 0.02 0.04 0.09 0.17 0.18 0.18 0.16 0.07 0.04 0.10 0.19 0.16 0.17 0.14 0.09 0.08 0.08 0.01 0.03 0.04 0.03 0.01 0.00 0.00 0.00 0.01 0.00 0.00 0.00 0.00 0.00 0.00 0.00 0.00 0.00 0.00 0.00 0.00 0.00 0.00 0.00 0.00 0.00 0.00
0.00 0.01 0.01 0.01 0.02 0.06 0.11 0.03 0.02 0.08 0.28 0.17 0.12 0.25 0.28 0.51 0.46 0.29 0.09 0.04 0.11 0.10 0.02 0.02 0.01 0.02 0.02 0.03 0.03 0.02 0.04 0.03 0.01 0.00 0.01 0.01 0.00 0.00 0.00 0.00 0.00 0.00 0.00 0.00 0.00 0.00 0.00 0.00 0.00 0.00 0.00 0.00 0.00 0.00
0.00 0.01 0.02 0.02 0.03 0.05 0.07 0.09 0.17 0.21 0.17 0.27 0.29 0.40 0.49 0.55 0.72 0.40 0.15 0.10 0.12 0.08 0.02 0.03 0.03 0.02 0.02 0.01 0.00 0.00 0.01 0.01 0.00 0.00 0.00 0.00 0.00 0.00 0.00 0.00 0.00 0.00 0.00 0.00 0.00 0.00 0.00 0.00 0.00 0.00 0.00 0.00 0.00 0.00
0.02 0.02 0.00 0.00 0.04 0.10 0.08 0.25 0.39 0.37 0.50 0.39 0.35 0.28 0.29 0.35 0.53 0.29 0.06 0.06 0.06 0.10 0.05 0.05 0.04 0.02 0.00 0.00 0.00 0.00 0.00 0.00 0.00 0.00 0.00 0.00 0.00 0.00 0.00 0.00 0.00 0.00 0.00 0.00 0.00 0.00 0.00 0.00 0.00 0.00 0.00 0.00 0.00 0.00